Theta_e
290 290 290 290 290 289 288 287 287 287 288 292 291 291 291 291 292 292 292 299 306 309 311 316 318 322 323 323 326 326 324 319 316 315 313 313 312 311
290 289 289 289 289 289 289 288 287 286 286 289 291 290 290 291 291 291 292 292 297 304 309 312 315 317 321 323 324 326 324 320 316 315 313 311 311 311
289 289 289 289 289 289 289 288 288 287 286 287 288 290 290 290 290 291 292 292 293 295 301 311 313 315 317 321 324 325 324 321 315 314 313 311 310 311
288 288 288 288 288 288 288 288 288 288 286 286 287 288 290 290 290 290 291 291 292 293 295 302 312 315 316 316 321 323 322 321 318 314 313 311 311 311
288 288 288 288 288 288 288 288 288 288 287 287 287 287 288 289 289 289 290 290 291 292 292 296 306 314 315 314 320 322 322 322 319 313 311 311 311 310
287 287 287 287 287 287 287 287 287 288 288 287 287 286 287 289 289 289 289 290 291 291 292 293 298 310 315 317 317 319 322 324 319 315 310 309 310 310
286 286 286 286 286 286 286 287 287 287 287 287 287 287 286 287 288 288 288 288 290 290 292 292 295 303 313 315 317 317 318 322 319 316 313 307 309 309
284 285 285 285 285 285 285 286 286 286 286 286 287 287 287 287 288 288 288 287 288 290 290 293 292 300 310 314 316 318 319 321 322 316 315 307 309 309
284 284 283 284 284 284 284 285 286 287 287 287 287 287 287 287 287 288 288 286 287 288 288 291 291 293 301 311 314 317 319 320 321 316 316 312 307 308
282 282 282 282 282 283 283 283 284 284 285 285 286 286 287 286 287 287 287 286 285 286 287 288 290 291 294 303 313 313 313 320 321 320 316 317 307 308
281 281 281 281 281 282 283 284 284 284 284 284 284 284 285 285 286 286 285 285 286 286 287 287 290 291 293 298 307 311 312 315 320 321 317 316 308 308
281 281 281 281 282 283 283 283 283 284 284 284 284 284 285 285 286 287 286 286 286 286 288 288 289 293 295 300 304 310 312 315 316 319 318 315 308 308
281 282 282 283 283 283 284 284 284 284 284 284 284 284 284 284 284 285 285 286 286 286 286 287 288 291 292 296 303 306 309 309 311 317 316 315 311 308
283 283 282 282 283 283 284 284 284 285 285 285 284 284 284 284 284 284 284 284 284 284 285 285 286 288 290 292 297 305 306 308 309 311 313 313 312 307
282 282 283 283 283 284 284 284 285 285 285 285 285 285 285 285 285 285 285 285 285 285 285 285 285 287 289 289 292 299 303 309 310 310 312 311 310 307
282 282 282 283 283 283 283 283 283 284 285 285 285 284 284 284 284 284 284 284 285 285 285 286 285 286 286 287 290 294 297 300 309 309 310 312 309 308
283 283 283 283 283 283 283 283 283 283 283 284 285 284 284 284 284 285 284 284 284 284 284 286 286 286 286 287 288 292 296 300 301 306 308 310 309 308
283 283 282 283 283 283 283 283 283 283 283 284 284 283 284 284 283 284 284 284 284 284 284 285 286 286 286 287 288 291 296 299 302 305 307 308 307 307
281 280 280 281 281 281 281 282 282 283 283 283 283 283 283 283 283 284 284 284 283 283 284 284 285 286 287 287 289 292 296 298 303 305 306 307 308 307
280 280 280 280 281 281 281 281 281 282 282 283 283 283 283 283 283 283 283 284 284 284 284 284 284 285 286 287 288 291 295 298 300 303 305 306 307 309
280 280 280 280 281 281 281 281 281 282 282 282 282 283 283 283 283 283 284 284 283 284 284 284 285 286 287 287 287 289 292 296 299 300 303 305 305 304
279 280 280 280 281 281 281 281 281 281 282 282 283 283 283 282 283 283 283 284 284 284 284 285 285 286 287 288 289 289 291 296 298 300 302 305 306 304
279 279 280 280 280 280 281 281 281 281 281 282 283 283 284 283 282 283 283 284 284 284 284 285 286 287 287 287 288 289 291 294 298 300 302 305 306 307
Wind_Speed
18 19 19 17 18 19 19 20 19 14 23 27 28 26 24 24 23 21 17 18 20 20 27 21 21 22 26 30 45 39 35 33 33 32 28 26 22 19
22 23 22 22 21 21 22 22 23 23 23 26 29 30 31 25 24 24 22 18 18 22 22 28 24 23 25 29 40 51 40 35 37 34 31 28 25 22
26 26 26 25 26 25 24 25 26 26 31 34 29 27 30 33 26 25 24 22 19 20 23 23 26 23 26 24 37 50 43 37 38 36 34 30 27 25
30 29 29 27 28 28 28 29 29 28 31 34 33 28 27 29 32 26 27 24 23 20 21 24 23 22 21 23 23 50 43 39 38 39 36 33 29 28
33 33 32 31 31 31 30 31 31 31 32 34 35 32 26 27 31 30 27 27 23 20 22 22 23 24 20 29 37 49 50 39 41 39 39 36 32 30
35 34 33 32 32 32 32 32 32 32 33 34 35 34 29 24 29 33 31 27 28 21 20 22 24 27 23 25 32 36 56 42 45 43 41 39 35 33
36 35 35 34 33 31 32 33 31 32 33 34 34 34 31 26 24 30 32 29 28 26 21 20 22 25 26 28 32 42 45 54 49 48 40 41 39 37
38 38 38 34 34 31 28 28 30 30 31 32 33 33 33 27 24 27 31 30 27 22 24 21 21 24 28 26 32 38 45 59 52 53 44 44 42 40
35 36 36 32 29 30 30 29 31 31 32 32 34 36 36 33 27 27 28 25 26 29 29 29 23 24 26 30 23 33 49 57 58 58 49 43 45 43
36 38 39 40 38 34 35 36 33 33 34 33 35 36 36 30 30 30 29 33 32 29 21 30 25 23 24 30 33 26 36 67 68 59 56 49 49 46
33 32 33 34 34 30 31 35 36 36 32 31 31 32 37 40 35 33 35 30 29 25 22 23 25 24 23 27 35 30 29 61 75 66 62 55 53 49
27 28 26 25 26 26 28 30 34 36 32 33 32 30 29 30 29 27 28 30 27 20 11 13 16 13 13 13 19 27 23 41 65 69 62 58 54 53
28 28 27 25 25 25 24 28 33 31 32 30 29 26 25 26 30 32 33 34 34 33 27 17 18 15 14 19 12 20 33 30 58 70 66 61 54 59
30 31 32 30 27 26 26 27 27 26 29 30 29 30 27 27 25 26 27 28 32 33 28 26 26 25 25 22 21 15 24 40 42 66 72 65 54 61
24 26 28 27 26 27 26 25 25 26 28 29 31 29 28 25 21 21 21 22 24 26 27 28 29 32 30 31 28 23 8 27 39 67 74 70 63 65
27 28 27 26 27 26 27 26 25 24 29 30 31 29 28 28 27 25 26 24 24 27 28 29 27 29 33 36 33 33 21 12 41 62 72 73 66 67
27 29 29 28 27 26 26 30 31 31 29 28 29 29 29 28 27 26 26 24 26 28 27 27 24 27 29 30 34 37 31 26 16 34 65 71 70 69
27 24 23 24 25 25 24 24 27 29 28 27 29 31 28 29 26 26 27 26 27 27 27 26 24 24 26 32 34 38 38 31 22 30 56 66 65 69
27 27 25 25 25 26 27 29 28 27 26 28 31 28 25 29 28 28 31 29 29 29 29 26 27 25 27 30 34 32 39 33 34 29 43 62 66 69
20 20 21 21 22 23 23 24 26 27 29 27 27 28 27 27 27 29 29 30 30 31 29 29 32 32 32 29 22 21 32 35 39 34 32 50 57 65
20 20 21 22 22 22 23 23 25 23 26 28 29 29 29 30 30 30 29 29 28 32 33 31 32 28 27 27 35 35 26 27 31 38 24 53 53 54
21 21 21 21 21 21 21 23 23 25 22 25 30 29 29 29 30 32 31 29 29 33 33 29 27 24 26 29 33 32 35 30 29 45 31 56 67 52
21 21 21 20 22 22 22 22 21 23 26 21 24 27 31 29 30 31 32 29 28 30 30 29 28 26 27 28 32 29 30 33 34 38 41 50 63 59
Wind_Direction
290 289 289 287 287 290 291 294 293 291 297 305 313 314 319 320 324 324 316 275 272 274 253 257 253 246 242 254 209 221 225 211 206 206 200 202 193 192
286 284 282 283 280 278 281 282 283 284 276 292 301 305 310 312 314 316 316 307 278 267 266 255 254 254 242 247 227 224 221 214 207 204 200 200 192 191
283 282 281 280 278 277 276 276 276 278 280 287 291 298 300 305 307 306 308 307 297 275 262 260 255 257 247 246 216 208 214 215 213 205 202 198 192 193
283 280 278 277 276 275 275 274 274 275 278 283 289 290 291 297 302 303 301 302 302 291 270 255 249 253 246 245 236 211 210 215 219 207 203 197 192 196
282 281 280 278 274 274 273 272 271 274 276 280 284 287 287 291 295 298 299 298 296 297 280 260 242 237 235 235 226 213 213 216 220 216 206 198 193 195
279 278 278 276 275 274 272 271 270 270 272 274 279 284 285 285 289 297 299 295 293 290 281 267 244 233 229 225 221 225 216 222 220 218 213 198 194 197
277 277 277 276 274 273 272 270 269 268 269 272 274 278 282 282 279 290 299 299 292 294 283 270 250 234 224 228 225 223 226 221 216 218 221 203 196 200
284 283 280 278 276 275 268 265 268 269 267 268 272 273 279 281 279 281 292 301 299 286 289 272 270 242 224 225 231 222 225 221 220 215 221 210 199 201
274 275 276 279 281 281 275 263 256 254 258 266 270 272 276 279 278 272 282 289 291 292 299 283 280 263 240 223 220 215 225 225 216 214 221 222 201 202
274 276 277 277 274 271 273 273 269 263 253 249 250 256 264 267 271 276 278 285 289 285 296 289 283 271 253 235 217 209 217 220 217 218 214 226 202 203
284 285 282 280 278 271 263 264 267 267 265 263 260 259 255 257 262 269 270 274 282 285 280 284 283 286 267 244 228 232 243 215 215 214 215 220 202 203
295 292 289 283 278 271 263 260 260 262 262 267 267 260 253 251 251 249 260 265 270 282 300 268 292 305 294 263 248 224 226 212 218 211 212 216 205 200
293 294 296 295 284 274 264 263 262 268 267 262 263 263 259 250 245 242 244 247 254 257 258 260 267 268 272 273 230 220 226 210 205 208 208 212 210 201
288 290 290 287 281 275 270 268 260 259 257 258 257 258 259 257 254 249 250 251 255 259 263 262 263 253 263 272 264 213 229 229 218 206 205 209 211 203
285 286 285 281 278 275 269 265 261 256 254 254 252 256 260 263 261 259 255 249 249 248 248 248 247 249 256 261 257 247 266 214 220 202 202 203 201 200
296 292 291 288 278 274 270 270 269 261 260 256 257 257 259 258 259 259 258 255 255 250 244 248 246 249 252 257 255 250 236 247 192 198 199 203 200 202
299 294 292 289 287 286 272 264 262 266 266 254 255 253 253 252 254 250 251 252 252 257 253 251 246 250 252 257 254 249 237 213 184 195 194 197 200 203
296 296 296 300 282 279 278 273 266 261 263 256 257 254 250 251 242 240 244 245 247 248 250 248 248 250 252 252 246 240 237 219 196 190 193 193 193 201
298 299 295 291 286 281 276 273 269 266 263 258 254 254 249 242 242 244 247 246 245 247 248 245 242 241 246 248 246 241 235 221 196 192 193 195 195 199
302 302 298 295 290 286 280 274 270 268 261 258 254 249 247 246 235 234 236 241 245 249 248 246 241 238 241 244 246 248 236 229 212 198 196 195 199 204
308 304 301 296 294 290 283 279 272 270 263 257 254 252 248 243 241 243 246 243 242 244 245 243 242 242 246 252 252 245 234 229 223 206 210 194 190 187
307 303 300 298 295 292 289 282 274 267 267 253 254 251 247 237 234 240 244 244 239 235 242 246 245 242 241 244 248 248 235 216 216 214 210 201 196 190
309 306 302 299 295 291 290 284 281 270 261 263 251 258 251 241 239 235 239 241 242 238 236 243 245 245 247 246 247 247 240 232 222 217 212 195 208 207